CSTAND;CFALL;CINZHN;CINZLKRHN;CINZLA
01.01.22;16897;295;217;0
02.01.22;16905;297;238;0
03.01.22;16908;283;237;239
04.01.22;17009;178;238;252
05.01.22;17008;215;236;270
06.01.22;17177;291;220;0
07.01.22;17220;251;291;269
08.01.22;17289;293;303;0
09.01.22;17332;322;315;0
10.01.22;17363;327;318;324
11.01.22;17524;365;321;357
12.01.22;17524;298;325;348
13.01.22;17806;476;459;479
14.01.22;17957;546;466;519
15.01.22;18101;580;450;0
16.01.22;18146;592;432;0
17.01.22;18167;562;483;550
18.01.22;18332;562;554;576
19.01.22;18586;664;629;617
20.01.22;18888;768;684;667
21.01.22;19107;844;599;734
22.01.22;19395;966;900;0
23.01.22;19509;1023;967;0
24.01.22;19531;990;924;877
25.01.22;19735;996;924;870
26.01.22;20147;1106;972;969
27.01.22;12608;1204;1079;1024
28.01.22;20984;1329;1184;1082
29.01.22;21321;1374;1203;0
30.01.22;21470;1475;1194;0
31.01.22;21539;1355;1397;1191
01.02.22;21810;1356;1533;1215
02.02.22;22145;1308;1598;1285
03.02.22;22582;1315;1695;1364
04.02.22;23028;1437;1769;1415
05.02.22;23471;1556;1886;0
06.02.22;23668;1667;1999;0
07.02.22;23786;1626;1881;1515
08.02.22;24184;1624;1887;1537
09.02.22;24578;1659;1980;1543
10.02.22;25083;1699;2018;1564
11.02.22;25485;1696;1953;1585
12.02.22;25803;1646;1895;0
13.02.22;25972;1707;1921;0
14.02.22;26089;1599;1890;1647
15.02.22;0;0;0;0
16.02.22;0;0;0;0
17.02.22;0;0;0;0
18.02.22;0;0;0;0
19.02.22;0;0;0;0
20.02.22;0;0;0;0
21.02.22;0;0;0;0
22.02.22;0;0;0;0
23.02.22;0;0;0;0
24.02.22;0;0;0;0
25.02.22;0;0;0;0
26.02.22;0;0;0;0
27.02.22;0;0;0;0
28.02.22;0;0;0;0
01.03.22;0;0;0;0
02.03.22;0;0;0;0
03.03.22;0;0;0;0
04.03.22;0;0;0;0
05.03.22;0;0;0;0
06.03.22;0;0;0;0
07.03.22;0;0;0;0
08.03.22;0;0;0;0
09.03.22;0;0;0;0
10.03.22;0;0;0;0
11.03.22;0;0;0;0
12.03.22;0;0;0;0
13.03.22;0;0;0;0
14.03.22;0;0;0;0
15.03.22;0;0;0;0
16.03.22;0;0;0;0
17.03.22;0;0;0;0
18.03.22;0;0;0;0
19.03.22;0;0;0;0
20.03.22;0;0;0;0
21.03.22;0;0;0;0
22.03.22;0;0;0;0
23.03.22;0;0;0;0
24.03.22;0;0;0;0
25.03.22;0;0;0;0
26.03.22;0;0;0;0
27.03.22;0;0;0;0
28.03.22;0;0;0;0
29.03.22;0;0;0;0
30.03.22;0;0;0;0
31.03.22;0;0;0;0
01.04.22;0;0;0;0
02.04.22;0;0;0;0
03.04.22;0;0;0;0
04.04.22;0;0;0;0
05.04.22;0;0;0;0
06.04.22;0;0;0;0
07.04.22;0;0;0;0
08.04.22;0;0;0;0
09.04.22;0;0;0;0
10.04.22;0;0;0;0
11.04.22;0;0;0;0
12.04.22;0;0;0;0
13.04.22;0;0;0;0
14.04.22;0;0;0;0
15.04.22;0;0;0;0
16.04.22;0;0;0;0
17.04.22;0;0;0;0
18.04.22;0;0;0;0
19.04.22;0;0;0;0
20.04.22;0;0;0;0
21.04.22;0;0;0;0
22.04.22;0;0;0;0
23.04.22;0;0;0;0
24.04.22;0;0;0;0
25.04.22;0;0;0;0
26.04.22;0;0;0;0
27.04.22;0;0;0;0
28.04.22;0;0;0;0
29.04.22;0;0;0;0
30.04.22;0;0;0;0
01.05.22;0;0;0;0
02.05.22;0;0;0;0
03.05.22;0;0;0;0
04.05.22;0;0;0;0
05.05.22;0;0;0;0
06.05.22;0;0;0;0
07.05.22;0;0;0;0
08.05.22;0;0;0;0
09.05.22;0;0;0;0
10.05.22;0;0;0;0
11.05.22;0;0;0;0
12.05.22;0;0;0;0
13.05.22;0;0;0;0
14.05.22;0;0;0;0
15.05.22;0;0;0;0
16.05.22;0;0;0;0
17.05.22;0;0;0;0
18.05.22;0;0;0;0
19.05.22;0;0;0;0
20.05.22;0;0;0;0
21.05.22;0;0;0;0
22.05.22;0;0;0;0
23.05.22;0;0;0;0
24.05.22;0;0;0;0
25.05.22;0;0;0;0
26.05.22;0;0;0;0
27.05.22;0;0;0;0
28.05.22;0;0;0;0
29.05.22;0;0;0;0
30.05.22;0;0;0;0
31.05.22;0;0;0;0
01.06.22;0;0;0;0
02.06.22;0;0;0;0
03.06.22;0;0;0;0
04.06.22;0;0;0;0
05.06.22;0;0;0;0
06.06.22;0;0;0;0
07.06.22;0;0;0;0
08.06.22;0;0;0;0
09.06.22;0;0;0;0
10.06.22;0;0;0;0
11.06.22;0;0;0;0
12.06.22;0;0;0;0
13.06.22;0;0;0;0
14.06.22;0;0;0;0
15.06.22;0;0;0;0
16.06.22;0;0;0;0
17.06.22;0;0;0;0
18.06.22;0;0;0;0
19.06.22;0;0;0;0
20.06.22;0;0;0;0
21.06.22;0;0;0;0
22.06.22;0;0;0;0
23.06.22;0;0;0;0
24.06.22;0;0;0;0
25.06.22;0;0;0;0
26.06.22;0;0;0;0
27.06.22;0;0;0;0
28.06.22;0;0;0;0
29.06.22;0;0;0;0
30.06.22;0;0;0;0
01.07.22;0;0;0;0
02.07.22;0;0;0;0
03.07.22;0;0;0;0
04.07.22;0;0;0;0
05.07.22;0;0;0;0
06.07.22;0;0;0;0
07.07.22;0;0;0;0
08.07.22;0;0;0;0
09.07.22;0;0;0;0
10.07.22;0;0;0;0
11.07.22;0;0;0;0
12.07.22;0;0;0;0
13.07.22;0;0;0;0
14.07.22;0;0;0;0
15.07.22;0;0;0;0
16.07.22;0;0;0;0
17.07.22;0;0;0;0
18.07.22;0;0;0;0
19.07.22;0;0;0;0
20.07.22;0;0;0;0
21.07.22;0;0;0;0
22.07.22;0;0;0;0
23.07.22;0;0;0;0
24.07.22;0;0;0;0
25.07.22;0;0;0;0
26.07.22;0;0;0;0
27.07.22;0;0;0;0
28.07.22;0;0;0;0
29.07.22;0;0;0;0
30.07.22;0;0;0;0
31.07.22;0;0;0;0
01.08.22;0;0;0;0
02.08.22;0;0;0;0
03.08.22;0;0;0;0
04.08.22;0;0;0;0
05.08.22;0;0;0;0
06.08.22;0;0;0;0
07.08.22;0;0;0;0
08.08.22;0;0;0;0
09.08.22;0;0;0;0
10.08.22;0;0;0;0
11.08.22;0;0;0;0
12.08.22;0;0;0;0
13.08.22;0;0;0;0
14.08.22;0;0;0;0
15.08.22;0;0;0;0
16.08.22;0;0;0;0
17.08.22;0;0;0;0
18.08.22;0;0;0;0
19.08.22;0;0;0;0
20.08.22;0;0;0;0
21.08.22;0;0;0;0
22.08.22;0;0;0;0
23.08.22;0;0;0;0
24.08.22;0;0;0;0
25.08.22;0;0;0;0
26.08.22;0;0;0;0
27.08.22;0;0;0;0
28.08.22;0;0;0;0
29.08.22;0;0;0;0
30.08.22;0;0;0;0
31.08.22;0;0;0;0
01.09.22;0;0;0;0
02.09.22;0;0;0;0
03.09.22;0;0;0;0
04.09.22;0;0;0;0
05.09.22;0;0;0;0
06.09.22;0;0;0;0
07.09.22;0;0;0;0
08.09.22;0;0;0;0
09.09.22;0;0;0;0
10.09.22;0;0;0;0
11.09.22;0;0;0;0
12.09.22;0;0;0;0
13.09.22;0;0;0;0
14.09.22;0;0;0;0
15.09.22;0;0;0;0
16.09.22;0;0;0;0
17.09.22;0;0;0;0
18.09.22;0;0;0;0
19.09.22;0;0;0;0
20.09.22;0;0;0;0
21.09.22;0;0;0;0
22.09.22;0;0;0;0
23.09.22;0;0;0;0
24.09.22;0;0;0;0
25.09.22;0;0;0;0
26.09.22;0;0;0;0
27.09.22;0;0;0;0
28.09.22;0;0;0;0
29.09.22;0;0;0;0
30.09.22;0;0;0;0
01.10.22;0;0;0;0
02.10.22;0;0;0;0
03.10.22;0;0;0;0
04.10.22;0;0;0;0
05.10.22;0;0;0;0
06.10.22;0;0;0;0
07.10.22;0;0;0;0
08.10.22;0;0;0;0
09.10.22;0;0;0;0
10.10.22;0;0;0;0
11.10.22;0;0;0;0
12.10.22;0;0;0;0
13.10.22;0;0;0;0
14.10.22;0;0;0;0
15.10.22;0;0;0;0
16.10.22;0;0;0;0
17.10.22;0;0;0;0
18.10.22;0;0;0;0
19.10.22;0;0;0;0
20.10.22;0;0;0;0
21.10.22;0;0;0;0
22.10.22;0;0;0;0
23.10.22;0;0;0;0
24.10.22;0;0;0;0
25.10.22;0;0;0;0
26.10.22;0;0;0;0
27.10.22;0;0;0;0
28.10.22;0;0;0;0
29.10.22;0;0;0;0
30.10.22;0;0;0;0
31.10.22;0;0;0;0
01.11.22;0;0;0;0
02.11.22;0;0;0;0
03.11.22;0;0;0;0
04.11.22;0;0;0;0
05.11.22;0;0;0;0
06.11.22;0;0;0;0
07.11.22;0;0;0;0
08.11.22;0;0;0;0
09.11.22;0;0;0;0
10.11.22;0;0;0;0
11.11.22;0;0;0;0
12.11.22;0;0;0;0
13.11.22;0;0;0;0
14.11.22;0;0;0;0
15.11.22;0;0;0;0
16.11.22;0;0;0;0
17.11.22;0;0;0;0
18.11.22;0;0;0;0
19.11.22;0;0;0;0
20.11.22;0;0;0;0
21.11.22;0;0;0;0
22.11.22;0;0;0;0
23.11.22;0;0;0;0
24.11.22;0;0;0;0
25.11.22;0;0;0;0
26.11.22;0;0;0;0
27.11.22;0;0;0;0
28.11.22;0;0;0;0
29.11.22;0;0;0;0
30.11.22;0;0;0;0
01.12.22;0;0;0;0
02.12.22;0;0;0;0
03.12.22;0;0;0;0
04.12.22;0;0;0;0
05.12.22;0;0;0;0
06.12.22;0;0;0;0
07.12.22;0;0;0;0
08.12.22;0;0;0;0
09.12.22;0;0;0;0
10.12.22;0;0;0;0
11.12.22;0;0;0;0
12.12.22;0;0;0;0
13.12.22;0;0;0;0
14.12.22;0;0;0;0
15.12.22;0;0;0;0
16.12.22;0;0;0;0
17.12.22;0;0;0;0
18.12.22;0;0;0;0
19.12.22;0;0;0;0
20.12.22;0;0;0;0
21.12.22;0;0;0;0
22.12.22;0;0;0;0
23.12.22;0;0;0;0
24.12.22;0;0;0;0
25.12.22;0;0;0;0
26.12.22;0;0;0;0
27.12.22;0;0;0;0
28.12.22;0;0;0;0
29.12.22;0;0;0;0
30.12.22;0;0;0;0
31.12.22;0;0;0;0
